Вернуться в каталог

ONEWEB-0405

АктивенСвязьPO
NORAD 50485·PAYLOAD·🇬🇧 United Kingdom

Запущен Dec 27, 2021 с Baikonur Cosmodrome

Loading…

Ближайшие Пролёты (ближайшие 24 часа)

TLE

СвежийSource: CelesTrak SupGP

Эпоха: Sep 14, 2026, 16:33 UTC

1 50485C 21132S   26257.68973796 -.00001005  00000+0 -25523-2 0  2571
2 50485  87.9173 317.6642 0001499  98.0948  14.0825 13.18688880    11

Отслеживайте ONEWEB-0405 в реальном времени с AllMySat

Download on the App Store